Year,Month,Day,Hour,Minute,Value (Times are PST for temperature in C)
2016,04,08,00,00,12.10
2016,04,08,00,01,12.00
2016,04,08,00,02,12.00
2016,04,08,00,03,12.00
2016,04,08,00,04,12.00
2016,04,08,00,05,12.00
2016,04,08,00,06,12.00
2016,04,08,00,07,12.00
2016,04,08,00,08,12.00
2016,04,08,00,09,12.00
2016,04,08,00,10,12.00
2016,04,08,00,11,12.00
2016,04,08,00,12,12.00
2016,04,08,00,13,12.00
2016,04,08,00,14,12.00
2016,04,08,00,15,12.10
2016,04,08,00,16,12.10
2016,04,08,00,17,12.10
2016,04,08,00,18,12.10
2016,04,08,00,19,12.20
2016,04,08,00,20,12.20
2016,04,08,00,21,12.10
2016,04,08,00,22,12.10
2016,04,08,00,23,12.10
2016,04,08,00,24,12.10
2016,04,08,00,25,12.00
2016,04,08,00,26,12.00
2016,04,08,00,27,12.00
2016,04,08,00,28,12.00
2016,04,08,00,29,12.00
2016,04,08,00,30,12.00
2016,04,08,00,31,12.00
2016,04,08,00,32,12.10
2016,04,08,00,33,12.10
2016,04,08,00,34,12.10
2016,04,08,00,35,12.20
2016,04,08,00,36,12.20
2016,04,08,00,37,12.20
2016,04,08,00,38,12.20
2016,04,08,00,39,12.30
2016,04,08,00,40,12.30
2016,04,08,00,41,12.30
2016,04,08,00,42,12.30
2016,04,08,00,43,12.30
2016,04,08,00,44,12.30
2016,04,08,00,45,12.40
2016,04,08,00,46,12.40
2016,04,08,00,47,12.40
2016,04,08,00,48,12.40
2016,04,08,00,49,12.50
2016,04,08,00,50,12.50
2016,04,08,00,51,12.50
2016,04,08,00,52,12.50
2016,04,08,00,53,12.40
2016,04,08,00,54,12.40
2016,04,08,00,55,12.40
2016,04,08,00,56,12.40
2016,04,08,00,57,12.40
2016,04,08,00,58,12.40
2016,04,08,00,59,12.40
2016,04,08,01,00,12.40
2016,04,08,01,01,12.40
2016,04,08,01,02,12.30
2016,04,08,01,03,12.30
2016,04,08,01,04,12.30
2016,04,08,01,05,12.30
2016,04,08,01,06,12.30
2016,04,08,01,07,12.30
2016,04,08,01,08,12.30
2016,04,08,01,09,12.30
2016,04,08,01,10,12.30
2016,04,08,01,11,12.30
2016,04,08,01,12,12.30
2016,04,08,01,13,12.30
2016,04,08,01,14,12.30
2016,04,08,01,15,12.30
2016,04,08,01,16,12.30
2016,04,08,01,17,12.30
2016,04,08,01,18,12.40
2016,04,08,01,19,12.40
2016,04,08,01,20,12.50
2016,04,08,01,21,12.50
2016,04,08,01,22,12.50
2016,04,08,01,23,12.50
2016,04,08,01,24,12.60
2016,04,08,01,25,12.60
2016,04,08,01,26,12.70
2016,04,08,01,27,12.70
2016,04,08,01,28,12.80
2016,04,08,01,29,12.80
2016,04,08,01,30,12.80
2016,04,08,01,31,12.80
2016,04,08,01,32,12.90
2016,04,08,01,33,12.90
2016,04,08,01,34,12.90
2016,04,08,01,35,12.90
2016,04,08,01,36,13.00
2016,04,08,01,37,13.00
2016,04,08,01,38,13.00
2016,04,08,01,39,13.00
2016,04,08,01,40,13.00
2016,04,08,01,41,13.00
2016,04,08,01,42,13.00
2016,04,08,01,43,13.00
2016,04,08,01,44,13.00
2016,04,08,01,45,13.00
2016,04,08,01,46,13.00
2016,04,08,01,47,13.00
2016,04,08,01,48,12.90
2016,04,08,01,49,12.90
2016,04,08,01,50,12.90
2016,04,08,01,51,12.90
2016,04,08,01,52,12.90
2016,04,08,01,53,12.90
2016,04,08,01,54,13.00
2016,04,08,01,55,13.00
2016,04,08,01,56,13.00
2016,04,08,01,57,13.00
2016,04,08,01,58,13.00
2016,04,08,01,59,13.00
2016,04,08,02,00,13.00
2016,04,08,02,01,13.00
2016,04,08,02,02,12.90
2016,04,08,02,03,12.90
2016,04,08,02,04,12.90
2016,04,08,02,05,12.80
2016,04,08,02,06,12.80
2016,04,08,02,07,12.70
2016,04,08,02,08,12.60
2016,04,08,02,09,12.50
2016,04,08,02,10,12.50
2016,04,08,02,11,12.40
2016,04,08,02,12,12.40
2016,04,08,02,13,12.30
2016,04,08,02,14,12.30
2016,04,08,02,15,12.20
2016,04,08,02,16,12.20
2016,04,08,02,17,12.20
2016,04,08,02,18,12.10
2016,04,08,02,19,12.10
2016,04,08,02,20,12.10
2016,04,08,02,21,12.20
2016,04,08,02,22,12.20
2016,04,08,02,23,12.20
2016,04,08,02,24,12.20
2016,04,08,02,25,12.30
2016,04,08,02,26,12.30
2016,04,08,02,27,12.30
2016,04,08,02,28,12.30
2016,04,08,02,29,12.30
2016,04,08,02,30,12.30
2016,04,08,02,31,12.20
2016,04,08,02,32,12.20
2016,04,08,02,33,12.20
2016,04,08,02,34,12.10
2016,04,08,02,35,12.10
2016,04,08,02,36,12.10
2016,04,08,02,37,12.00
2016,04,08,02,38,12.00
2016,04,08,02,39,12.00
2016,04,08,02,40,11.90
2016,04,08,02,41,11.90
2016,04,08,02,42,11.90
2016,04,08,02,43,11.90
2016,04,08,02,44,11.90
2016,04,08,02,45,11.90
2016,04,08,02,46,11.90
2016,04,08,02,47,11.90
2016,04,08,02,48,11.80
2016,04,08,02,49,11.80
2016,04,08,02,50,11.80
2016,04,08,02,51,11.80
2016,04,08,02,52,11.80
2016,04,08,02,53,11.80
2016,04,08,02,54,11.80
2016,04,08,02,55,11.80
2016,04,08,02,56,11.80
2016,04,08,02,57,11.80
2016,04,08,02,58,11.80
2016,04,08,02,59,11.80
2016,04,08,03,00,11.90
2016,04,08,03,01,11.90
2016,04,08,03,02,11.90
2016,04,08,03,03,11.90
2016,04,08,03,04,11.90
2016,04,08,03,05,12.00
2016,04,08,03,06,12.00
2016,04,08,03,07,12.00
2016,04,08,03,08,12.00
2016,04,08,03,09,12.00
2016,04,08,03,10,12.00
2016,04,08,03,11,12.00
2016,04,08,03,12,12.00
2016,04,08,03,13,11.90
2016,04,08,03,14,11.90
2016,04,08,03,15,11.90
2016,04,08,03,16,11.90
2016,04,08,03,17,11.90
2016,04,08,03,18,11.90
2016,04,08,03,19,11.90
2016,04,08,03,20,11.90
2016,04,08,03,21,11.90
2016,04,08,03,22,11.90
2016,04,08,03,23,11.90
2016,04,08,03,24,11.90
2016,04,08,03,25,11.90
2016,04,08,03,26,11.90
2016,04,08,03,27,11.90
2016,04,08,03,28,11.90
2016,04,08,03,29,11.90
2016,04,08,03,30,11.90
2016,04,08,03,31,12.00
2016,04,08,03,32,12.00
2016,04,08,03,33,12.00
2016,04,08,03,34,12.00
2016,04,08,03,35,12.00
2016,04,08,03,36,12.00
2016,04,08,03,37,12.00
2016,04,08,03,38,12.00
2016,04,08,03,39,12.00
2016,04,08,03,40,12.00
2016,04,08,03,41,12.00
2016,04,08,03,42,12.00
2016,04,08,03,43,11.90
2016,04,08,03,44,11.90
2016,04,08,03,45,11.90
2016,04,08,03,46,11.90
2016,04,08,03,47,11.90
2016,04,08,03,48,11.90
2016,04,08,03,49,11.90
2016,04,08,03,50,11.90
2016,04,08,03,51,11.80
2016,04,08,03,52,11.80
2016,04,08,03,53,11.80
2016,04,08,03,54,11.80
2016,04,08,03,55,11.80
2016,04,08,03,56,11.80
2016,04,08,03,57,11.80
2016,04,08,03,58,11.80
2016,04,08,03,59,11.80
2016,04,08,04,00,11.80
2016,04,08,04,01,11.80
2016,04,08,04,02,11.70
2016,04,08,04,03,11.70
2016,04,08,04,04,11.70
2016,04,08,04,05,11.70
2016,04,08,04,06,11.70
2016,04,08,04,07,11.70
2016,04,08,04,08,11.70
2016,04,08,04,09,11.60
2016,04,08,04,10,11.60
2016,04,08,04,11,11.60
2016,04,08,04,12,11.60
2016,04,08,04,13,11.60
2016,04,08,04,14,11.60
2016,04,08,04,15,11.50
2016,04,08,04,16,11.40
2016,04,08,04,17,11.40
2016,04,08,04,18,11.40
2016,04,08,04,19,11.40
2016,04,08,04,20,11.40
2016,04,08,04,21,11.30
2016,04,08,04,22,11.30
2016,04,08,04,23,11.30
2016,04,08,04,24,11.20
2016,04,08,04,25,11.20
2016,04,08,04,26,11.20
2016,04,08,04,27,11.10
2016,04,08,04,28,11.10
2016,04,08,04,29,11.10
2016,04,08,04,30,11.10
2016,04,08,04,31,11.10
2016,04,08,04,32,11.00
2016,04,08,04,33,10.90
2016,04,08,04,34,10.90
2016,04,08,04,35,10.90
2016,04,08,04,36,10.90
2016,04,08,04,37,10.90
2016,04,08,04,38,10.90
2016,04,08,04,39,10.80
2016,04,08,04,40,10.80
2016,04,08,04,41,10.80
2016,04,08,04,42,10.70
2016,04,08,04,43,10.70
2016,04,08,04,44,10.70
2016,04,08,04,45,10.60
2016,04,08,04,46,10.60
2016,04,08,04,47,10.60
2016,04,08,04,48,10.60
2016,04,08,04,49,10.60
2016,04,08,04,50,10.60
2016,04,08,04,51,10.50
2016,04,08,04,52,10.40
2016,04,08,04,53,10.40
2016,04,08,04,54,10.40
2016,04,08,04,55,10.40
2016,04,08,04,56,10.40
2016,04,08,04,57,10.40
2016,04,08,04,58,10.40
2016,04,08,04,59,10.40
2016,04,08,05,00,10.40
2016,04,08,05,01,10.40
2016,04,08,05,02,10.40
2016,04,08,05,03,10.40
2016,04,08,05,04,10.40
2016,04,08,05,05,10.40
2016,04,08,05,06,10.30
2016,04,08,05,07,10.30
2016,04,08,05,08,10.20
2016,04,08,05,09,10.20
2016,04,08,05,10,10.20
2016,04,08,05,11,10.20
2016,04,08,05,12,10.10
2016,04,08,05,13,10.10
2016,04,08,05,14,10.10
2016,04,08,05,15,10.10
2016,04,08,05,16,10.10
2016,04,08,05,17,10.10
2016,04,08,05,18,10.10
2016,04,08,05,19,10.00
2016,04,08,05,20,9.90
2016,04,08,05,21,9.90
2016,04,08,05,22,9.90
2016,04,08,05,23,9.90
2016,04,08,05,24,9.90
2016,04,08,05,25,9.90
2016,04,08,05,26,9.90
2016,04,08,05,27,9.90
2016,04,08,05,28,9.90
2016,04,08,05,29,9.90
2016,04,08,05,30,9.80
2016,04,08,05,31,9.80
2016,04,08,05,32,9.80
2016,04,08,05,33,9.80
2016,04,08,05,34,9.70
2016,04,08,05,35,9.70
2016,04,08,05,36,9.70
2016,04,08,05,37,9.70
2016,04,08,05,38,9.70
2016,04,08,05,39,9.70
2016,04,08,05,40,9.70
2016,04,08,05,41,9.70
2016,04,08,05,42,9.70
2016,04,08,05,43,9.70
2016,04,08,05,44,9.70
2016,04,08,05,45,9.70
2016,04,08,05,46,9.70
2016,04,08,05,47,9.70
2016,04,08,05,48,9.70
2016,04,08,05,49,9.70
2016,04,08,05,50,9.70
2016,04,08,05,51,9.70
2016,04,08,05,52,9.60
2016,04,08,05,53,9.60
2016,04,08,05,54,9.60
2016,04,08,05,55,9.60
2016,04,08,05,56,9.60
2016,04,08,05,57,9.70
2016,04,08,05,58,9.70
2016,04,08,05,59,9.70
2016,04,08,06,00,9.70
2016,04,08,06,01,9.70
2016,04,08,06,02,9.70
2016,04,08,06,03,9.70
2016,04,08,06,04,9.70
2016,04,08,06,05,9.70
2016,04,08,06,06,9.70
2016,04,08,06,07,9.80
2016,04,08,06,08,9.80
2016,04,08,06,09,9.80
2016,04,08,06,10,9.90
2016,04,08,06,11,9.90
2016,04,08,06,12,9.90
2016,04,08,06,13,9.90
2016,04,08,06,14,9.90
2016,04,08,06,15,9.90
2016,04,08,06,16,10.00
2016,04,08,06,17,10.10
2016,04,08,06,18,10.10
2016,04,08,06,19,10.10
2016,04,08,06,20,10.10
2016,04,08,06,21,10.10
2016,04,08,06,22,10.10
2016,04,08,06,23,10.10
2016,04,08,06,24,10.10
2016,04,08,06,25,10.10
2016,04,08,06,26,10.10
2016,04,08,06,27,10.10
2016,04,08,06,28,10.10
2016,04,08,06,29,10.10
2016,04,08,06,30,10.10
2016,04,08,06,31,10.10
2016,04,08,06,32,10.10
2016,04,08,06,33,10.10
2016,04,08,06,34,10.10
2016,04,08,06,35,10.10
2016,04,08,06,36,10.10
2016,04,08,06,37,10.10
2016,04,08,06,38,10.10
2016,04,08,06,39,10.10
2016,04,08,06,40,10.10
2016,04,08,06,41,10.10
2016,04,08,06,42,10.10
2016,04,08,06,43,10.10
2016,04,08,06,44,10.10
2016,04,08,06,45,9.90
2016,04,08,06,46,9.90
2016,04,08,06,47,9.90
2016,04,08,06,48,9.90
2016,04,08,06,49,9.90
2016,04,08,06,50,9.90
2016,04,08,06,51,9.90
2016,04,08,06,52,9.90
2016,04,08,06,53,9.90
2016,04,08,06,54,9.90
2016,04,08,06,55,9.90
2016,04,08,06,56,9.90
2016,04,08,06,57,9.90
2016,04,08,06,58,9.90
2016,04,08,06,59,9.90
2016,04,08,07,00,9.90
2016,04,08,07,01,9.90
2016,04,08,07,02,9.90
2016,04,08,07,03,9.90
2016,04,08,07,04,9.90
2016,04,08,07,05,9.90
2016,04,08,07,06,9.90
2016,04,08,07,07,9.80
2016,04,08,07,08,9.80
2016,04,08,07,09,9.80
2016,04,08,07,10,9.80
2016,04,08,07,11,9.80
2016,04,08,07,12,9.80
2016,04,08,07,13,9.90
2016,04,08,07,14,9.90
2016,04,08,07,15,9.90
2016,04,08,07,16,9.90
2016,04,08,07,17,10.00
2016,04,08,07,18,10.10
2016,04,08,07,19,10.10
2016,04,08,07,20,10.10
2016,04,08,07,21,10.20
2016,04,08,07,22,10.20
2016,04,08,07,23,10.30
2016,04,08,07,24,10.40
2016,04,08,07,25,10.40
2016,04,08,07,26,10.50
2016,04,08,07,27,10.60
2016,04,08,07,28,10.60
2016,04,08,07,29,10.70
2016,04,08,07,30,10.80
2016,04,08,07,31,10.80
2016,04,08,07,32,10.90
2016,04,08,07,33,11.00
2016,04,08,07,34,11.10
2016,04,08,07,35,11.10
2016,04,08,07,36,11.10
2016,04,08,07,37,11.20
2016,04,08,07,38,11.30
2016,04,08,07,39,11.40
2016,04,08,07,40,11.40
2016,04,08,07,41,11.60
2016,04,08,07,42,11.60
2016,04,08,07,43,11.70
2016,04,08,07,44,11.80
2016,04,08,07,45,11.80
2016,04,08,07,46,11.90
2016,04,08,07,47,11.90
2016,04,08,07,48,11.90
2016,04,08,07,49,11.80
2016,04,08,07,50,11.80
2016,04,08,07,51,11.80
2016,04,08,07,52,11.80
2016,04,08,07,53,11.80
2016,04,08,07,54,11.80
2016,04,08,07,55,11.90
2016,04,08,07,56,11.90
2016,04,08,07,57,11.90
2016,04,08,07,58,11.90
2016,04,08,07,59,12.00
2016,04,08,08,00,12.00
2016,04,08,08,01,12.00
2016,04,08,08,02,12.00
2016,04,08,08,03,12.00
2016,04,08,08,04,12.00
2016,04,08,08,05,12.00
2016,04,08,08,06,11.90
2016,04,08,08,07,11.90
2016,04,08,08,08,11.90
2016,04,08,08,09,11.80
2016,04,08,08,10,11.90
2016,04,08,08,11,11.90
2016,04,08,08,12,12.00
2016,04,08,08,13,12.00
2016,04,08,08,14,12.10
2016,04,08,08,15,12.20
2016,04,08,08,16,12.30
2016,04,08,08,17,12.30
2016,04,08,08,18,12.40
2016,04,08,08,19,12.50
2016,04,08,08,20,12.60
2016,04,08,08,21,12.70
2016,04,08,08,22,12.90
2016,04,08,08,23,13.00
2016,04,08,08,24,13.10
2016,04,08,08,25,13.20
2016,04,08,08,26,13.20
2016,04,08,08,27,13.30
2016,04,08,08,28,13.40
2016,04,08,08,29,13.50
2016,04,08,08,30,13.60
2016,04,08,08,31,13.70
2016,04,08,08,32,13.80
2016,04,08,08,33,13.90
2016,04,08,08,34,14.00
2016,04,08,08,35,14.00
2016,04,08,08,36,14.00
2016,04,08,08,37,14.10
2016,04,08,08,38,14.20
2016,04,08,08,39,14.20
2016,04,08,08,40,14.20
2016,04,08,08,41,14.20
2016,04,08,08,42,14.30
2016,04,08,08,43,14.30
2016,04,08,08,44,14.30
2016,04,08,08,45,14.40
2016,04,08,08,46,14.40
2016,04,08,08,47,14.50
2016,04,08,08,48,14.60
2016,04,08,08,49,14.60
2016,04,08,08,50,14.70
2016,04,08,08,51,14.70
2016,04,08,08,52,14.80
2016,04,08,08,53,14.80
2016,04,08,08,54,14.90
2016,04,08,08,55,14.90
2016,04,08,08,56,14.90
2016,04,08,08,57,14.90
2016,04,08,08,58,14.90
2016,04,08,08,59,14.80
2016,04,08,09,00,14.60
2016,04,08,09,01,14.40
2016,04,08,09,02,14.30
2016,04,08,09,03,14.20
2016,04,08,09,04,14.20
2016,04,08,09,05,14.20
2016,04,08,09,06,14.20
2016,04,08,09,07,14.20
2016,04,08,09,08,14.20
2016,04,08,09,09,14.20
2016,04,08,09,10,14.20
2016,04,08,09,11,14.30
2016,04,08,09,12,14.30
2016,04,08,09,13,14.30
2016,04,08,09,14,14.30
2016,04,08,09,15,14.30
2016,04,08,09,16,14.30
2016,04,08,09,17,14.40
2016,04,08,09,18,14.50
2016,04,08,09,19,14.50
2016,04,08,09,20,14.60
2016,04,08,09,21,14.60
2016,04,08,09,22,14.70
2016,04,08,09,23,14.70
2016,04,08,09,24,14.80
2016,04,08,09,25,14.90
2016,04,08,09,26,15.00
2016,04,08,09,27,15.10
2016,04,08,09,28,15.20
2016,04,08,09,29,15.20
2016,04,08,09,30,15.20
2016,04,08,09,31,15.30
2016,04,08,09,32,15.30
2016,04,08,09,33,15.30
2016,04,08,09,34,15.40
2016,04,08,09,35,15.50
2016,04,08,09,36,15.50
2016,04,08,09,37,15.60
2016,04,08,09,38,15.60
2016,04,08,09,39,15.60
2016,04,08,09,40,15.70
2016,04,08,09,41,15.70
2016,04,08,09,42,15.70
2016,04,08,09,43,15.80
2016,04,08,09,44,15.80
2016,04,08,09,45,16.00
2016,04,08,09,46,16.10
2016,04,08,09,47,16.20
2016,04,08,09,48,16.30
2016,04,08,09,49,16.40
2016,04,08,09,50,16.60
2016,04,08,09,51,16.70
2016,04,08,09,52,16.90
2016,04,08,09,53,16.90
2016,04,08,09,54,17.00
2016,04,08,09,55,17.10
2016,04,08,09,56,17.10
2016,04,08,09,57,17.20
2016,04,08,09,58,17.30
2016,04,08,09,59,17.30
2016,04,08,10,00,17.50
2016,04,08,10,01,17.50
2016,04,08,10,02,17.50
2016,04,08,10,03,17.40
2016,04,08,10,04,17.30
2016,04,08,10,05,17.00
2016,04,08,10,06,16.80
2016,04,08,10,07,16.60
2016,04,08,10,08,16.40
2016,04,08,10,09,16.30
2016,04,08,10,10,16.20
2016,04,08,10,11,16.20
2016,04,08,10,12,16.20
2016,04,08,10,13,16.30
2016,04,08,10,14,16.40
2016,04,08,10,15,16.40
2016,04,08,10,16,16.60
2016,04,08,10,17,16.70
2016,04,08,10,18,16.70
2016,04,08,10,19,16.80
2016,04,08,10,20,16.90
2016,04,08,10,21,17.00
2016,04,08,10,22,17.10
2016,04,08,10,23,17.30
2016,04,08,10,24,17.40
2016,04,08,10,25,17.50
2016,04,08,10,26,17.60
2016,04,08,10,27,17.70
2016,04,08,10,28,17.80
2016,04,08,10,29,17.90
2016,04,08,10,30,17.90
2016,04,08,10,31,17.90
2016,04,08,10,32,17.90
2016,04,08,10,33,18.10
2016,04,08,10,34,18.20
2016,04,08,10,35,18.10
2016,04,08,10,36,18.00
2016,04,08,10,37,17.80
2016,04,08,10,38,17.60
2016,04,08,10,39,17.40
2016,04,08,10,40,17.20
2016,04,08,10,41,17.00
2016,04,08,10,42,16.90
2016,04,08,10,43,16.70
2016,04,08,10,44,16.60
2016,04,08,10,45,16.50
2016,04,08,10,46,16.50
2016,04,08,10,47,16.40
2016,04,08,10,48,16.40
2016,04,08,10,49,16.40
2016,04,08,10,50,16.30
2016,04,08,10,51,16.20
2016,04,08,10,52,16.20
2016,04,08,10,53,16.20
2016,04,08,10,54,16.20
2016,04,08,10,55,16.20
2016,04,08,10,56,16.00
2016,04,08,10,57,15.90
2016,04,08,10,58,15.90
2016,04,08,10,59,15.90
2016,04,08,11,00,15.80
2016,04,08,11,01,15.80
2016,04,08,11,02,15.70
2016,04,08,11,03,15.60
2016,04,08,11,04,15.60
2016,04,08,11,05,15.60
2016,04,08,11,06,15.50
2016,04,08,11,07,15.50
2016,04,08,11,08,15.50
2016,04,08,11,09,15.60
2016,04,08,11,10,15.60
2016,04,08,11,11,15.60
2016,04,08,11,12,15.60
2016,04,08,11,13,15.60
2016,04,08,11,14,15.60
2016,04,08,11,15,15.70
2016,04,08,11,16,15.70
2016,04,08,11,17,15.70
2016,04,08,11,18,15.80
2016,04,08,11,19,15.80
2016,04,08,11,20,15.80
2016,04,08,11,21,15.80
2016,04,08,11,22,15.90
2016,04,08,11,23,16.10
2016,04,08,11,24,16.10
2016,04,08,11,25,16.20
2016,04,08,11,26,16.10
2016,04,08,11,27,16.20
2016,04,08,11,28,16.20
2016,04,08,11,29,16.20
2016,04,08,11,30,16.30
2016,04,08,11,31,16.30
2016,04,08,11,32,16.40
2016,04,08,11,33,16.40
2016,04,08,11,34,16.40
2016,04,08,11,35,16.40
2016,04,08,11,36,16.40
2016,04,08,11,37,16.50
2016,04,08,11,38,16.60
2016,04,08,11,39,16.60
2016,04,08,11,40,16.70
2016,04,08,11,41,16.70
2016,04,08,11,42,16.70
2016,04,08,11,43,16.70
2016,04,08,11,44,16.70
2016,04,08,11,45,16.70
2016,04,08,11,46,16.70
2016,04,08,11,47,16.70
2016,04,08,11,48,16.70
2016,04,08,11,49,16.70
2016,04,08,11,50,16.70
2016,04,08,11,51,16.70
2016,04,08,11,52,16.80
2016,04,08,11,53,17.00
2016,04,08,11,54,17.10
2016,04,08,11,55,17.30
2016,04,08,11,56,17.40
2016,04,08,11,57,17.60
2016,04,08,11,58,17.70
2016,04,08,11,59,17.70
2016,04,08,12,00,17.70
2016,04,08,12,01,17.70
2016,04,08,12,02,17.60
2016,04,08,12,03,17.60
2016,04,08,12,04,17.70
2016,04,08,12,05,17.70
2016,04,08,12,06,17.60
2016,04,08,12,07,17.50
2016,04,08,12,08,17.50
2016,04,08,12,09,17.50
2016,04,08,12,10,17.50
2016,04,08,12,11,17.50
2016,04,08,12,12,17.30
2016,04,08,12,13,17.20
2016,04,08,12,14,17.10
2016,04,08,12,15,17.00
2016,04,08,12,16,17.00
2016,04,08,12,17,16.90
2016,04,08,12,18,16.80
2016,04,08,12,19,16.70
2016,04,08,12,20,16.70
2016,04,08,12,21,16.70
2016,04,08,12,22,16.70
2016,04,08,12,23,16.70
2016,04,08,12,24,16.70
2016,04,08,12,25,16.70
2016,04,08,12,26,16.70
2016,04,08,12,27,16.70
2016,04,08,12,28,16.60
2016,04,08,12,29,16.60
2016,04,08,12,30,16.60
2016,04,08,12,31,16.70
2016,04,08,12,32,16.70
2016,04,08,12,33,16.60
2016,04,08,12,34,16.60
2016,04,08,12,35,16.60
2016,04,08,12,36,16.60
2016,04,08,12,37,16.60
2016,04,08,12,38,16.60
2016,04,08,12,39,16.60
2016,04,08,12,40,16.60
2016,04,08,12,41,16.70
2016,04,08,12,42,16.80
2016,04,08,12,43,16.90
2016,04,08,12,44,17.00
2016,04,08,12,45,17.00
2016,04,08,12,46,17.10
2016,04,08,12,47,17.20
2016,04,08,12,48,17.30
2016,04,08,12,49,17.50
2016,04,08,12,50,17.60
2016,04,08,12,51,17.80
2016,04,08,12,52,17.90
2016,04,08,12,53,18.10
2016,04,08,12,54,18.20
2016,04,08,12,55,18.30
2016,04,08,12,56,18.30
2016,04,08,12,57,18.30
2016,04,08,12,58,18.30
2016,04,08,12,59,18.30
2016,04,08,13,00,18.20
2016,04,08,13,01,18.20
2016,04,08,13,02,18.10
2016,04,08,13,03,18.10
2016,04,08,13,04,18.10
2016,04,08,13,05,18.10
2016,04,08,13,06,18.10
2016,04,08,13,07,18.10
2016,04,08,13,08,18.00
2016,04,08,13,09,17.90
2016,04,08,13,10,17.90
2016,04,08,13,11,17.90
2016,04,08,13,12,17.90
2016,04,08,13,13,17.90
2016,04,08,13,14,17.90
2016,04,08,13,15,17.90
2016,04,08,13,16,17.90
2016,04,08,13,17,17.90
2016,04,08,13,18,17.90
2016,04,08,13,19,17.90
2016,04,08,13,20,17.90
2016,04,08,13,21,17.90
2016,04,08,13,22,17.80
2016,04,08,13,23,17.70
2016,04,08,13,24,17.70
2016,04,08,13,25,17.60
2016,04,08,13,26,17.60
2016,04,08,13,27,17.60
2016,04,08,13,28,17.60
2016,04,08,13,29,17.60
2016,04,08,13,30,17.60
2016,04,08,13,31,17.50
2016,04,08,13,32,17.50
2016,04,08,13,33,17.50
2016,04,08,13,34,17.50
2016,04,08,13,35,17.50
2016,04,08,13,36,17.60
2016,04,08,13,37,17.70
2016,04,08,13,38,17.70
2016,04,08,13,39,17.70
2016,04,08,13,40,17.70
2016,04,08,13,41,17.70
2016,04,08,13,42,17.70
2016,04,08,13,43,17.70
2016,04,08,13,44,17.60
2016,04,08,13,45,17.70
2016,04,08,13,46,17.70
2016,04,08,13,47,17.70
2016,04,08,13,48,17.70
2016,04,08,13,49,17.70
2016,04,08,13,50,17.60
2016,04,08,13,51,17.60
2016,04,08,13,52,17.70
2016,04,08,13,53,17.70
2016,04,08,13,54,17.80
2016,04,08,13,55,17.80
2016,04,08,13,56,17.90
2016,04,08,13,57,17.90
2016,04,08,13,58,17.90
2016,04,08,13,59,17.90
2016,04,08,14,00,17.90
2016,04,08,14,01,17.90
2016,04,08,14,02,17.80
2016,04,08,14,03,17.60
2016,04,08,14,04,17.50
2016,04,08,14,05,17.30
2016,04,08,14,06,17.20
2016,04,08,14,07,17.00
2016,04,08,14,08,17.00
2016,04,08,14,09,16.90
2016,04,08,14,10,16.90
2016,04,08,14,11,16.90
2016,04,08,14,12,16.90
2016,04,08,14,13,16.90
2016,04,08,14,14,16.90
2016,04,08,14,15,16.90
2016,04,08,14,16,16.80
2016,04,08,14,17,16.80
2016,04,08,14,18,16.80
2016,04,08,14,19,16.70
2016,04,08,14,20,16.70
2016,04,08,14,21,16.70
2016,04,08,14,22,16.70
2016,04,08,14,23,16.70
2016,04,08,14,24,16.60
2016,04,08,14,25,16.50
2016,04,08,14,26,16.40
2016,04,08,14,27,16.30
2016,04,08,14,28,16.20
2016,04,08,14,29,16.00
2016,04,08,14,30,15.80
2016,04,08,14,31,15.70
2016,04,08,14,32,15.50
2016,04,08,14,33,15.30
2016,04,08,14,34,15.20
2016,04,08,14,35,15.20
2016,04,08,14,36,15.20
2016,04,08,14,37,15.20
2016,04,08,14,38,15.20
2016,04,08,14,39,15.30
2016,04,08,14,40,15.30
2016,04,08,14,41,15.30
2016,04,08,14,42,15.30
2016,04,08,14,43,15.30
2016,04,08,14,44,15.40
2016,04,08,14,45,15.40
2016,04,08,14,46,15.50
2016,04,08,14,47,15.50
2016,04,08,14,48,15.60
2016,04,08,14,49,15.60
2016,04,08,14,50,15.70
2016,04,08,14,51,15.70
2016,04,08,14,52,15.70
2016,04,08,14,53,15.60
2016,04,08,14,54,15.60
2016,04,08,14,55,15.70
2016,04,08,14,56,15.70
2016,04,08,14,57,15.80
2016,04,08,14,58,15.80
2016,04,08,14,59,15.80
2016,04,08,15,00,15.80
2016,04,08,15,01,15.80
2016,04,08,15,02,15.80
2016,04,08,15,03,15.80
2016,04,08,15,04,15.80
2016,04,08,15,05,15.80
2016,04,08,15,06,15.80
2016,04,08,15,07,15.80
2016,04,08,15,08,15.80
2016,04,08,15,09,15.80
2016,04,08,15,10,15.80
2016,04,08,15,11,15.80
2016,04,08,15,12,15.90
2016,04,08,15,13,16.00
2016,04,08,15,14,16.10
2016,04,08,15,15,16.10
2016,04,08,15,16,16.20
2016,04,08,15,17,16.40
2016,04,08,15,18,16.40
2016,04,08,15,19,16.50
2016,04,08,15,20,16.60
2016,04,08,15,21,16.70
2016,04,08,15,22,16.70
2016,04,08,15,23,16.70
2016,04,08,15,24,16.70
2016,04,08,15,25,16.70
2016,04,08,15,26,16.70
2016,04,08,15,27,16.80
2016,04,08,15,28,16.80
2016,04,08,15,29,16.90
2016,04,08,15,30,17.00
2016,04,08,15,31,17.10
2016,04,08,15,32,17.20
2016,04,08,15,33,17.30
2016,04,08,15,34,17.40
2016,04,08,15,35,17.50
2016,04,08,15,36,17.60
2016,04,08,15,37,17.60
2016,04,08,15,38,17.70
2016,04,08,15,39,17.80
2016,04,08,15,40,17.90
2016,04,08,15,41,17.90
2016,04,08,15,42,18.00
2016,04,08,15,43,18.10
2016,04,08,15,44,18.10
2016,04,08,15,45,18.20
2016,04,08,15,46,18.20
2016,04,08,15,47,18.20
2016,04,08,15,48,18.20
2016,04,08,15,49,18.20
2016,04,08,15,50,18.20
2016,04,08,15,51,18.20
2016,04,08,15,52,18.30
2016,04,08,15,53,18.30
2016,04,08,15,54,18.30
2016,04,08,15,55,18.30
2016,04,08,15,56,18.30
2016,04,08,15,57,18.30
2016,04,08,15,58,18.30
2016,04,08,15,59,18.30
2016,04,08,16,00,18.30
2016,04,08,16,01,18.30
2016,04,08,16,02,18.20
2016,04,08,16,03,18.20
2016,04,08,16,04,18.20
2016,04,08,16,05,18.10
2016,04,08,16,06,18.10
2016,04,08,16,07,18.00
2016,04,08,16,08,17.90
2016,04,08,16,09,17.90
2016,04,08,16,10,17.90
2016,04,08,16,11,17.90
2016,04,08,16,12,17.90
2016,04,08,16,13,17.90
2016,04,08,16,14,17.80
2016,04,08,16,15,17.80
2016,04,08,16,16,17.80
2016,04,08,16,17,17.80
2016,04,08,16,18,17.80
2016,04,08,16,19,17.70
2016,04,08,16,20,17.70
2016,04,08,16,21,17.70
2016,04,08,16,22,17.70
2016,04,08,16,23,17.80
2016,04,08,16,24,17.80
2016,04,08,16,25,17.80
2016,04,08,16,26,17.80
2016,04,08,16,27,17.80
2016,04,08,16,28,17.80
2016,04,08,16,29,17.90
2016,04,08,16,30,17.90
2016,04,08,16,31,17.90
2016,04,08,16,32,17.90
2016,04,08,16,33,17.90
2016,04,08,16,34,18.00
2016,04,08,16,35,18.10
2016,04,08,16,36,18.10
2016,04,08,16,37,18.20
2016,04,08,16,38,18.20
2016,04,08,16,39,18.20
2016,04,08,16,40,18.20
2016,04,08,16,41,18.20
2016,04,08,16,42,18.20
2016,04,08,16,43,18.20
2016,04,08,16,44,18.20
2016,04,08,16,45,18.20
2016,04,08,16,46,18.20
2016,04,08,16,47,18.30
2016,04,08,16,48,18.30
2016,04,08,16,49,18.40
2016,04,08,16,50,18.50
2016,04,08,16,51,18.50
2016,04,08,16,52,18.60
2016,04,08,16,53,18.60
2016,04,08,16,54,18.60
2016,04,08,16,55,18.60
2016,04,08,16,56,18.60
2016,04,08,16,57,18.50
2016,04,08,16,58,18.50
2016,04,08,16,59,18.50
2016,04,08,17,00,18.40
2016,04,08,17,01,18.30
2016,04,08,17,02,18.20
2016,04,08,17,03,18.20
2016,04,08,17,04,18.10
2016,04,08,17,05,18.00
2016,04,08,17,06,17.90
2016,04,08,17,07,17.80
2016,04,08,17,08,17.70
2016,04,08,17,09,17.70
2016,04,08,17,10,17.60
2016,04,08,17,11,17.60
2016,04,08,17,12,17.50
2016,04,08,17,13,17.50
2016,04,08,17,14,17.40
2016,04,08,17,15,17.40
2016,04,08,17,16,17.40
2016,04,08,17,17,17.40
2016,04,08,17,18,17.50
2016,04,08,17,19,17.50
2016,04,08,17,20,17.50
2016,04,08,17,21,17.60
2016,04,08,17,22,17.60
2016,04,08,17,23,17.70